STARLINK-1865 (46741 NORAD) Tracking and Keplerian Element Data

This shows tracking and keplerian element data for the satellite.

Feedback or suggestion? Click here.




ElementValue
Catalog46741
NameSTARLINK-1865
Epoch Orbit562
Epoch Day331.16668981
Epoch Year2020
RAAN0.7586
Inclination53.055
Eccentricity9.81E-05
Argument of Perigee74.1046
Mean Anonmoly143.4978
Mean Motion15.62805344
Decay Rate-0.00049147
L11 46741U 20074C 20331.16668981 -.00049147 00000-0 -53309-3 0 9999
L22 46741 53.0550 0.7586 0000981 74.1046 143.4978 15.62805344 5625

Live tracking and technical data element details for STARLINK-1865 (NORAD 46741). STARLINK-1865 can be tracked NOW for your location showing map with azimuth and elevation plus other details from your city location.

Track the satellite on the map from your city or location and see movement details for azimuth, elevation, latitude, longitude, range, height, and movement on the map or in text.







IsCatalogInMostPopularTable: catalog: 46741, numindb: 7
Update: records affected: 1



GetName: 46741 STARLINK-1865

Hit Count: updated at: Thu, 26 Nov 2020 20:18:54 GMT